| time (UTC) | temp F | wind direction | speed MPH | gust MPH | rain 1hr in | rain 24hr in | rain mn in | humidity % | barometer mb |
| 20260506032620 | 59 | 336 | 0.0 | 0.0 | 0.00 | 0.00 | 0.00 | 78 | 1035.2 |
| 20260506031621 | 59 | 323 | 0.0 | 0.0 | 0.00 | 0.00 | 0.00 | 78 | 1035.0 |
| 20260506030621 | 59 | 320 | 0.0 | 0.0 | 0.00 | 0.00 | 0.00 | 78 | 1034.9 |
| 20260506025621 | 60 | 315 | 0.0 | 0.0 | 0.00 | 0.00 | 0.00 | 79 | 1034.8 |
| 20260506024720 | 60 | 316 | 0.0 | 0.0 | 0.00 | 0.00 | 0.00 | 78 | 1034.8 |
| 20260506023820 | 60 | 320 | 0.0 | 0.0 | 0.00 | 0.00 | 0.00 | 78 | 1034.6 |
| 20260506022819 | 60 | 333 | 0.0 | 0.0 | 0.00 | 0.00 | 0.00 | 78 | 1034.5 |
| 20260506021819 | 61 | 315 | 0.0 | 0.0 | 0.00 | 0.00 | 0.00 | 79 | 1034.3 |
| 20260506020819 | 61 | 329 | 0.0 | 0.0 | 0.00 | 0.00 | 0.00 | 80 | 1034.3 |
| 20260506015820 | 61 | 323 | 0.0 | 0.0 | 0.00 | 0.00 | 0.00 | 78 | 1034.2 |
| 20260506014820 | 62 | 319 | 0.0 | 0.0 | 0.00 | 0.00 | 0.00 | 81 | 1034.1 |
| 20260506011920 | 64 | 325 | 0.0 | 0.0 | 0.00 | 0.00 | 0.00 | 81 | 1033.7 |
| 20260506010919 | 64 | 333 | 0.0 | 0.0 | 0.00 | 0.00 | 0.00 | 82 | 1033.7 |
| 20260506005920 | 65 | 323 | 0.0 | 0.0 | 0.00 | 0.00 | 0.00 | 84 | 1033.9 |
| 20260506005019 | 65 | 320 | 0.0 | 0.0 | 0.00 | 0.00 | 0.00 | 84 | 1033.6 |
| 20260506004020 | 65 | 323 | 0.0 | 0.0 | 0.00 | 0.00 | 0.00 | 85 | 1033.7 |
| 20260506003019 | 65 | 317 | 0.0 | 0.0 | 0.00 | 0.00 | 0.00 | 85 | 1033.7 |
| 20260506001022 | 65 | 319 | 0.0 | 0.0 | 0.00 | 0.00 | 0.00 | 82 | 1033.4 |
| 20260506000118 | 66 | 319 | 0.0 | 0.0 | 0.00 | 0.00 | 0.00 | 82 | 1033.4 |
| 20260505235122 | 66 | 317 | 0.0 | 0.0 | 0.00 | 0.00 | 0.00 | 86 | 1033.6 |
| 20260505234218 | 66 | 320 | 0.0 | 0.0 | 0.00 | 0.00 | 0.00 | 83 | 1033.5 |
| 20260505233221 | 66 | 320 | 0.0 | 0.0 | 0.00 | 0.00 | 0.00 | 86 | 1033.5 |
| 20260505232221 | 66 | 326 | 0.0 | 0.0 | 0.00 | 0.00 | 0.00 | 85 | 1033.7 |
| 20260505231320 | 66 | 319 | 0.0 | 0.0 | 0.00 | 0.00 | 0.00 | 85 | 1033.6 |
| 20260505230320 | 67 | 316 | 0.0 | 0.0 | 0.00 | 0.00 | 0.00 | 88 | 1033.6 |
| 20260505225320 | 67 | 319 | 0.0 | 0.0 | 0.00 | 0.00 | 0.00 | 88 | 1033.6 |
| 20260505223419 | 67 | 317 | 0.0 | 0.0 | 0.00 | 0.00 | 0.00 | 85 | 1033.8 |
| 20260505222420 | 67 | 322 | 0.0 | 0.0 | 0.00 | 0.00 | 0.00 | 86 | 1033.8 |
| 20260505221420 | 67 | 318 | 0.0 | 0.0 | 0.00 | 0.00 | 0.00 | 86 | 1033.9 |
| 20260505220518 | 67 | 325 | 0.0 | 0.0 | 0.00 | 0.00 | 0.00 | 85 | 1034.0 |
| 20260505215519 | 67 | 316 | 0.0 | 0.0 | 0.00 | 0.00 | 0.00 | 86 | 1034.1 |
| 20260505214521 | 67 | 322 | 0.0 | 0.0 | 0.00 | 0.00 | 0.00 | 86 | 1034.0 |
| 20260505213619 | 67 | 324 | 0.0 | 0.0 | 0.00 | 0.00 | 0.00 | 84 | 1034.2 |
| 20260505212620 | 67 | 322 | 0.0 | 0.0 | 0.00 | 0.00 | 0.00 | 85 | 1034.3 |
| 20260505210620 | 66 | 320 | 0.0 | 0.0 | 0.00 | 0.00 | 0.00 | 84 | 1034.5 |
| 20260505204719 | 66 | 323 | 0.0 | 0.0 | 0.00 | 0.00 | 0.00 | 84 | 1034.6 |
| 20260505203720 | 66 | 319 | 0.0 | 0.0 | 0.00 | 0.00 | 0.00 | 84 | 1034.6 |
| 20260505202720 | 66 | 323 | 0.0 | 0.0 | 0.00 | 0.00 | 0.00 | 83 | 1034.6 |
| 20260505201721 | 66 | 319 | 0.0 | 0.0 | 0.00 | 0.00 | 0.00 | 82 | 1034.6 |
| 20260505200719 | 66 | 320 | 0.0 | 0.0 | 0.00 | 0.00 | 0.00 | 84 | 1034.6 |
| 20260505195719 | 65 | 318 | 0.0 | 0.0 | 0.00 | 0.00 | 0.00 | 82 | 1034.8 |
| 20260505194720 | 65 | 316 | 0.0 | 0.0 | 0.00 | 0.00 | 0.00 | 84 | 1034.8 |
| 20260505193818 | 65 | 317 | 0.0 | 0.0 | 0.00 | 0.00 | 0.00 | 85 | 1034.8 |
| 20260505192820 | 64 | 332 | 0.0 | 0.0 | 0.00 | 0.00 | 0.00 | 82 | 1034.8 |
| 20260505191821 | 64 | 319 | 0.0 | 0.0 | 0.00 | 0.00 | 0.00 | 82 | 1034.9 |
| 20260505190820 | 64 | 319 | 0.0 | 0.0 | 0.00 | 0.00 | 0.00 | 81 | 1034.9 |
| 20260505185821 | 64 | 319 | 0.0 | 0.0 | 0.00 | 0.00 | 0.00 | 81 | 1034.9 |
| 20260505184822 | 64 | 324 | 0.0 | 0.0 | 0.00 | 0.00 | 0.00 | 81 | 1034.9 |
| 20260505183818 | 63 | 318 | 0.0 | 0.0 | 0.00 | 0.00 | 0.00 | 81 | 1035.0 |
| 20260505181919 | 63 | 316 | 0.0 | 0.0 | 0.00 | 0.00 | 0.00 | 76 | 1035.0 |
| 20260505174921 | 61 | 322 | 0.0 | 0.0 | 0.00 | 0.00 | 0.00 | 83 | 1034.7 |
| 20260505172919 | 61 | 323 | 0.0 | 0.0 | 0.00 | 0.00 | 0.00 | 82 | 1034.5 |
| 20260505171919 | 62 | 320 | 0.0 | 0.0 | 0.00 | 0.00 | 0.00 | 82 | 1034.3 |
| 20260505170920 | 62 | 318 | 0.0 | 0.0 | 0.00 | 0.00 | 0.00 | 85 | 1034.1 |
| 20260505165018 | 62 | 322 | 0.0 | 0.0 | 0.00 | 0.00 | 0.00 | 87 | 1034.2 |
| 20260505164020 | 61 | 327 | 0.0 | 0.0 | 0.00 | 0.00 | 0.00 | 83 | 1034.0 |
| 20260505163020 | 60 | 326 | 0.0 | 0.0 | 0.00 | 0.00 | 0.00 | 83 | 1033.9 |
| 20260505162021 | 60 | 327 | 0.0 | 0.0 | 0.00 | 0.00 | 0.00 | 86 | 1033.8 |
| 20260505152020 | 58 | 319 | 0.0 | 0.0 | 0.00 | 0.00 | 0.00 | 91 | 1033.4 |
| 20260505151022 | 58 | 326 | 0.0 | 0.0 | 0.00 | 0.00 | 0.00 | 92 | 1033.4 |
| 20260505124120 | 56 | 338 | 0.0 | 0.0 | 0.00 | 0.00 | 0.00 | 95 | 1032.2 |
| 20260505123122 | 56 | 315 | 0.0 | 0.0 | 0.00 | 0.00 | 0.00 | 94 | 1032.4 |
| 20260505122121 | 56 | 322 | 0.0 | 0.0 | 0.00 | 0.00 | 0.00 | 94 | 1032.2 |
| 20260505121219 | 55 | 335 | 0.0 | 0.0 | 0.00 | 0.00 | 0.00 | 94 | 1032.2 |
| 20260505121120 | 55 | 337 | 0.0 | 0.0 | 0.00 | 0.00 | 0.00 | 94 | 1032.2 |
| 20260505120121 | 55 | 346 | 0.0 | 0.0 | 0.00 | 0.00 | 0.00 | 94 | 1032.2 |
| 20260505115120 | 55 | 332 | 0.0 | 0.0 | 0.00 | 0.00 | 0.00 | 94 | 1032.3 |
| 20260505114122 | 56 | 331 | 0.0 | 0.0 | 0.00 | 0.00 | 0.00 | 94 | 1032.3 |
| 20260505112121 | 56 | 360 | 0.0 | 0.0 | 0.00 | 0.00 | 0.00 | 95 | 1032.1 |
| 20260505110120 | 56 | 360 | 0.0 | 0.0 | 0.00 | 0.00 | 0.00 | 92 | 1032.2 |
| 20260505102220 | 57 | 322 | 0.0 | 0.0 | 0.00 | 0.00 | 0.00 | 91 | 1032.4 |
| 20260505100319 | 57 | 315 | 0.0 | 0.0 | 0.00 | 0.00 | 0.00 | 89 | 1032.5 |
| 20260505095320 | 57 | 318 | 0.0 | 0.0 | 0.00 | 0.00 | 0.00 | 89 | 1032.6 |
| 20260505094321 | 57 | 320 | 0.0 | 0.0 | 0.00 | 0.00 | 0.00 | 88 | 1032.6 |
| 20260505093320 | 57 | 315 | 0.0 | 0.0 | 0.00 | 0.00 | 0.00 | 87 | 1032.6 |
| 20260505092321 | 57 | 315 | 0.0 | 0.0 | 0.00 | 0.00 | 0.00 | 86 | 1032.8 |
| 20260505091420 | 57 | 330 | 0.0 | 0.0 | 0.00 | 0.00 | 0.00 | 84 | 1032.6 |
| 20260505085520 | 58 | 325 | 0.0 | 0.0 | 0.00 | 0.00 | 0.00 | 82 | 1032.9 |
| 20260505084619 | 59 | 316 | 0.0 | 0.0 | 0.00 | 0.00 | 0.00 | 83 | 1032.8 |
| 20260505083621 | 58 | 318 | 0.0 | 0.0 | 0.00 | 0.00 | 0.00 | 83 | 1032.9 |
| 20260505082620 | 58 | 316 | 0.0 | 0.0 | 0.00 | 0.00 | 0.00 | 82 | 1033.0 |
| 20260505080620 | 59 | 316 | 0.0 | 0.0 | 0.00 | 0.00 | 0.00 | 79 | 1033.2 |
| 20260505075620 | 59 | 338 | 0.0 | 0.0 | 0.00 | 0.00 | 0.00 | 79 | 1033.4 |
| 20260505074619 | 59 | 324 | 0.0 | 0.0 | 0.00 | 0.00 | 0.00 | 79 | 1033.3 |
| 20260505072721 | 60 | 316 | 0.0 | 0.0 | 0.00 | 0.00 | 0.00 | 81 | 1033.4 |
| 20260505065825 | 60 | 317 | 0.0 | 0.0 | 0.00 | 0.00 | 0.00 | 83 | 1033.5 |
| 20260505064822 | 60 | 318 | 0.0 | 0.0 | 0.00 | 0.00 | 0.00 | 82 | 1033.6 |
| 20260505063822 | 60 | 319 | 0.0 | 0.0 | 0.00 | 0.00 | 0.00 | 82 | 1033.6 |
| 20260505062823 | 60 | 319 | 0.0 | 0.0 | 0.00 | 0.00 | 0.00 | 81 | 1033.6 |
| 20260505061824 | 60 | 324 | 0.0 | 0.0 | 0.00 | 0.00 | 0.00 | 83 | 1033.7 |
| 20260505060922 | 59 | 316 | 0.0 | 0.0 | 0.00 | 0.00 | 0.00 | 82 | 1033.8 |
| 20260505055923 | 59 | 326 | 0.0 | 0.0 | 0.00 | 0.00 | 0.00 | 83 | 1033.9 |
| 20260505055022 | 59 | 321 | 0.0 | 0.0 | 0.00 | 0.00 | 0.00 | 83 | 1033.9 |
| 20260505054021 | 59 | 327 | 0.0 | 0.0 | 0.00 | 0.00 | 0.00 | 82 | 1033.9 |
| 20260505053024 | 60 | 316 | 0.0 | 0.0 | 0.00 | 0.00 | 0.00 | 81 | 1034.1 |
| 20260505052038 | 60 | 322 | 0.0 | 0.0 | 0.00 | 0.00 | 0.00 | 81 | 1034.2 |
| 20260505051122 | 60 | 326 | 0.0 | 0.0 | 0.00 | 0.00 | 0.00 | 82 | 1034.4 |
| 20260505035324 | 62 | 319 | 0.0 | 0.0 | 0.00 | 0.00 | 0.00 | 72 | 1034.0 |
| 20260505034323 | 62 | 326 | 0.0 | 0.0 | 0.00 | 0.00 | 0.00 | 70 | 1034.0 |